Regional Weather Roundup
Issued by NWS Sterling, VA

Home | Current Version | Previous Version | Text Only | Print | Product List | Glossary Off
Versions: 1 2 3 4 5 6 7 8 9 10 11 12 13 14 15 16 17 18 19 20 21 22 23 24 25 26 27 28 29 30 31 32 33 34 35 36 37 38 39 40 41 42 43 44 45 46 47 48 49 50

000
ASUS41 KLWX 251111
RWRLWX

REGIONAL WEATHER ROUNDUP
NATIONAL WEATHER SERVICE BALTIMORE MD/WASHINGTON DC
700 AM EDT FRI MAY 25 2018

Note: "FAIR" indicates few or no clouds below 12,000 feet
with no significant weather and/or obstructions to visibility.
 TC=TEMPERATURE CELSIUS

 * =Non NWS site. Station does not report precipitation (e.g. rain,
    snow, etc.), thunder, or fog.

DCZ001-MDZ009-015-VAZ040>042-051-053>054-251200-
WASHINGTON METRO

CITY           SKY/WX    TMP DP  RH WIND       PRES   REMARKS
WASHINGTON NAT FAIR      66  61  84 S6        30.11S
DULLES         FAIR      61  58  90 CALM      30.10S
ANDREWS AFB    FAIR      63  59  88 CALM      30.10S
FT BELVOIR     FAIR      57  56  97 CALM      30.11S
QUANTICO       FAIR      64  61  90 CALM      30.12S
COLLEGE PARK*  FAIR      58  56  94 CALM      30.10S
LEESBURG*      FAIR      57  55  94 CALM      30.11S
MANASSAS*      FAIR      56  55  97 CALM      30.11S
GAITHERSBURG*  FAIR      58  57  97 CALM      30.11S

$$

MDZ006>007-011-014-251200-
BALTIMORE METRO

CITY           SKY/WX    TMP DP  RH WIND       PRES   REMARKS
BWI AIRPORT    FAIR      63  60  90 SW3       30.09F
MD SCIENCE CTR   N/A     68  59  73 MISG      30.10S
MARTIN STATE   SUNNY     66  63  88 CALM      30.11S
ANNAPOLIS      FAIR      67  60  78 W6        30.10S
FORT MEADE*    FAIR      54  52  94 CALM      30.12F

$$

MDZ012-015-019>023-251200-
MARYLAND EASTERN SHORE

CITY           SKY/WX    TMP DP  RH WIND       PRES   REMARKS
OCEAN CITY     FAIR      64  62  93 CALM      30.13R
SALISBURY      FAIR      61  60  97 CALM      30.12R
BAY BRIDGE AP* FAIR      68  61  77 SW6       30.10S
CAMBRIDGE*     SUNNY     64  64 100 CALM      30.12S
EASTON*        SUNNY     66  64  94 SW5       30.15R

$$

MDZ017>025-251200-
SOUTHERN MARYLAND

CITY           SKY/WX    TMP DP  RH WIND       PRES   REMARKS
PATUXENT RIVER FAIR      70  62  76 SW8       30.11S
ST INIGOES     FAIR      69  64  84 S6        30.11S
LEONARDTOWN*   FAIR      64  61  88 SW3       30.14R

$$

MDZ003>005-251200-
NORTH CENTRAL MARYLAND

CITY           SKY/WX    TMP DP  RH WIND       PRES   REMARKS
FREDERICK*     FAIR      59  59 100 CALM      30.13R
HAGERSTOWN APT FAIR      63  52  67 S6        30.09S
WESTMINSTER*   FAIR      66  54  63 S3        30.10S

$$

MDZ501>502-251200-
WESTERN MARYLAND

CITY           SKY/WX    TMP DP  RH WIND       PRES   REMARKS
OAKLAND*       FAIR      61  52  72 SW9       30.15F
CUMBERLAND*    FAIR      55  54  94 CALM      30.15S

$$

VAZ025>031-251200-
SHENANDOAH VALLEY

CITY           SKY/WX    TMP DP  RH WIND       PRES   REMARKS
WINCHESTER*    FAIR      57  52  82 S3        30.11F
FRONT ROYAL*   FAIR      59  54  82 S6        30.09F
LURAY*         FAIR      55  54  94 CALM      30.12S
NEW MARKET*    FAIR      56  54  93 SW6       30.12S
STAUNTON*      FAIR      54  53  96 CALM      30.16S
WAYNESBORO*    FAIR      56  55  95 CALM      30.15R

$$

WVZ021-048>050-054>055-251200-
EASTERN WEST VIRGINIA PANHANDLE

CITY           SKY/WX    TMP DP  RH WIND       PRES   REMARKS
MARTINSBURG    FAIR      56  53  90 CALM      30.08F
PETERSBURG*    FAIR      53  53  99 CALM      30.12S

$$

VAZ036>039-050-251200-
CENTRAL FOOTHILLS

CITY           SKY/WX    TMP DP  RH WIND       PRES   REMARKS
CHARLOTTESVILL FAIR      62  57  83 VRB5      30.11S
CULPEPER*      FAIR      56  54  95 CALM      30.12S
ORANGE*        FAIR      55  54  94 CALM      30.11F
GORDONSVILLE*  FAIR      56  56 100 CALM      30.11S
WARRENTON*     FAIR      58  54  89 CALM      30.11R

$$

VAZ055>057-251200-
NORTH AND CENTRAL PIEDMONT

CITY           SKY/WX    TMP DP  RH WIND       PRES   REMARKS
FREDERICKSBRG* FAIR      60  60 100 CALM      30.11S
STAFFORD*      FAIR      56  56 100 CALM      30.15S

$$

NCZ024-NYZ072-PAZ021-071-VAZ022-071-251200-
OTHER REGIONAL OBSERVATIONS

CITY           SKY/WX    TMP DP  RH WIND       PRES   REMARKS
NEW YORK CITY  FAIR      66  52  60 VRB3      30.08S
PHILADELPHIA   FAIR      63  60  90 SW8       30.10R
PITTSBURGH     FAIR      57  53  86 CALM      30.06S
ROANOKE        FAIR      63  59  87 NE3       30.16S
RICHMOND       FAIR      64  60  87 CALM      30.13R
RALEIGH        FAIR      68  65  90 CALM      30.14R

$$

ANZ530>537-251200-
MARINE OBSERVATIONS

STATION/POSITION TIME  TEMP    WIND        PRES
                       AIR SEA DIR/SP/G
                 (UTC) (F)     (DEG/KT/KT) (MB)
THOMAS PT LIGHT  1100   68 69  220/ 11/ 12 1020.1S
BALT KEY BRIDGE  1048   65     230/  2/  3 1019.0F
COVE POINT       1048   69     240/ 12/ 16 1020.3R
LEWISETTA        1048   68 76  220/  6/  8 1019.9R
SOLOMONS ISLAND  1048   70 72  230/  8/ 10 1019.6R
PINEY POINT      1048          240/  8/ 11   N/A

$$




USA.gov is the U.S. government's official web portal to all federal, state and local government web resources and services.